This is the latest recevied weather packets stored in our database for station/object W8AN. If no packets are shown the sender has not sent any weather packets the latest 10 day(s).
| Time | Temp. | Humidity | Pressure | Rain* | Wind** | Luminosity | Snow |
|---|---|---|---|---|---|---|---|
| 1777519985 | 7.78° C | 85% | 4267.1 hPa | 0 mm | - | 0 W/m² | - |
| 1777519681 | 7.78° C | 85% | 4267 hPa | 0 mm | - | 0 W/m² | - |
| 1777519378 | 7.78° C | 85% | 4267.1 hPa | 0 mm | - | 0 W/m² | - |
| 1777519074 | 7.78° C | 85% | 4267 hPa | 0 mm | - | 0 W/m² | - |
| 1777518770 | 7.78° C | 85% | 4267.2 hPa | 0 mm | - | 0 W/m² | - |
| 1777518467 | 7.78° C | 85% | 4267.1 hPa | 0 mm | - | 0 W/m² | - |
| 1777518162 | 7.78° C | 84% | 4267.2 hPa | 0 mm | - | 0 W/m² | - |
| 1777517859 | 7.78° C | 84% | 4267.4 hPa | 0 mm | - | 0 W/m² | - |
| 1777517554 | 7.78° C | 84% | 4267.4 hPa | 0 mm | - | 0 W/m² | - |
| 1777517253 | 7.78° C | 84% | 4267.4 hPa | 0 mm | - | 0 W/m² | - |
| 1777516952 | 7.78° C | 85% | 4267.2 hPa | 0 mm | - | 0 W/m² | - |
| 1777516648 | 7.78° C | 85% | 4267.4 hPa | 0 mm | - | 0 W/m² | - |
| 1777516344 | 8.33° C | 85% | 4267 hPa | 0 mm | - | 0 W/m² | - |
| 1777516040 | 8.33° C | 85% | 4266.8 hPa | 0 mm | - | 0 W/m² | - |
| 1777515737 | 8.33° C | 85% | 4266.6 hPa | 0 mm | - | 0 W/m² | - |
| 1777515434 | 8.33° C | 85% | 4266.6 hPa | 0 mm | - | 0 W/m² | - |
| 1777515130 | 8.33° C | 85% | 4266.8 hPa | 1.27 mm | - | 0 W/m² | - |
| 1777514827 | 8.33° C | 85% | 4266.6 hPa | 1.27 mm | - | 0 W/m² | - |
| 1777514524 | 8.33° C | 85% | 4266.6 hPa | 0 mm | - | 0 W/m² | - |
| 1777514221 | 8.33° C | 85% | 4266.5 hPa | 0 mm | - | 0 W/m² | - |
| 1777513917 | 8.33° C | 85% | 4266.5 hPa | 0 mm | - | 0 W/m² | - |
| 1777513614 | 8.89° C | 85% | 4266.7 hPa | 0 mm | - | 0 W/m² | - |
| 1777513311 | 8.33° C | 85% | 4266.6 hPa | 1.78 mm | - | 0 W/m² | - |
| 1777513007 | 8.89° C | 85% | 4266.5 hPa | 4.83 mm | - | 0 W/m² | - |
| 1777512704 | 8.89° C | 85% | 4266.4 hPa | 3.05 mm | - | 0 W/m² | - |
* Rain latest hour (hover to see other rain measurements)
** Current wind speed in m/s (hover to see current wind gust speed)